^^
Station Historical Data
Daily Summary for September 24, 2017 Units:  Metric    English   Both
« Previous Day
Next Day »
Daily Weekly Monthly Yearly Custom
  High: Low: Average:
Temperature: 33.8 °C 16.2 °C 21.7 °C
Dew Point: 4.6 °C -1.6 °C 0.5 °C
Humidity: 43% 12% 26%
Wind Speed: 30.6km/h 0km/h 7.1km/h
Wind Gust: 40.2km/h - -
Wind- - South
Pressure: 1013.4 hPa 1006 hPa -
Precipitation: 0 mm    
Historical Graphs
 
 
Tabular Data for September 24, 2017
Time Temperature Dew Point Pressure Wind Wind Speed Wind Gust Humidity Rainfall Rate (Hourly) solar Conditions
00:01 21.2 °C 0.4 °C 1013.4 hPa Calm     25% 0 mm 0.0 W/m2
00:06 21 °C 0.2 °C 1013.1 hPa Calm     25% 0 mm 0.0 W/m2
00:11 20.8 °C 0.6 °C 1013.1 hPa Calm     26% 0 mm 0.0 W/m2
00:17 21.1 °C 0.8 °C 1012.8 hPa Calm     26% 0 mm 0.0 W/m2
00:22 21.3 °C 0.5 °C 1012.8 hPa Calm     25% 0 mm 0.0 W/m2
00:27 21.4 °C 0.6 °C 1013.1 hPa Calm     25% 0 mm 0.0 W/m2
00:32 21.6 °C 0.7 °C 1012.8 hPa Calm     25% 0 mm 0.0 W/m2
00:37 21.4 °C 0 °C 1013.1 hPa Calm     24% 0 mm 0.0 W/m2
00:42 21.2 °C 0.4 °C 1012.8 hPa Calm     25% 0 mm 0.0 W/m2
00:48 21.2 °C 0.4 °C 1012.8 hPa Calm     25% 0 mm 0.0 W/m2
00:58 21.6 °C 0.7 °C 1012.8 hPa Calm     25% 0 mm 0.0 W/m2
01:03 21.6 °C 0.2 °C 1012.8 hPa Calm     24% 0 mm 0.0 W/m2
01:08 21.3 °C -0.1 °C 1012.8 hPa Calm     24% 0 mm 0.0 W/m2
01:14 21.1 °C 0.3 °C 1012.8 hPa Calm     25% 0 mm 0.0 W/m2
01:19 21 °C 0.2 °C 1012.8 hPa Calm     25% 0 mm 0.0 W/m2
01:25 21 °C 0.2 °C 1012.4 hPa Calm     25% 0 mm 0.0 W/m2
01:35 20.7 °C 0 °C 1012.4 hPa Calm     25% 0 mm 0.0 W/m2
01:40 20.5 °C -0.2 °C 1012.4 hPa Calm     25% 0 mm 0.0 W/m2
01:45 20.4 °C -0.3 °C 1012.4 hPa Calm     25% 0 mm 0.0 W/m2
01:50 20.2 °C 0.1 °C 1012.4 hPa Calm     26% 0 mm 0.0 W/m2
02:01 20.2 °C -0.5 °C 1012.1 hPa Calm     25% 0 mm 0.0 W/m2
02:08 20.1 °C -0.5 °C 1012.1 hPa Calm     25% 0 mm 0.0 W/m2
02:14 19.8 °C -0.3 °C 1012.1 hPa Calm     26% 0 mm 0.0 W/m2
02:22 19.8 °C -0.3 °C 1011.7 hPa Calm     26% 0 mm 0.0 W/m2
02:27 19.8 °C -0.8 °C 1011.7 hPa Calm     25% 0 mm 0.0 W/m2
02:32 19.6 °C -1 °C 1011.7 hPa Calm     25% 0 mm 0.0 W/m2
02:37 19.2 °C -0.8 °C 1011.7 hPa Calm     26% 0 mm 0.0 W/m2
02:42 18.9 °C -1 °C 1011.7 hPa Calm     26% 0 mm 0.0 W/m2
02:48 18.8 °C -0.6 °C 1011.4 hPa Calm     27% 0 mm 0.0 W/m2
02:53 18.8 °C -0.6 °C 1011.4 hPa Calm     27% 0 mm 0.0 W/m2
02:58 18.9 °C -0.5 °C 1011.4 hPa Calm     27% 0 mm 0.0 W/m2
03:03 19 °C -0.4 °C 1011.1 hPa Calm     27% 0 mm 0.0 W/m2
03:14 19.3 °C -0.7 °C 1011.1 hPa Calm     26% 0 mm 0.0 W/m2
03:19 19.4 °C -0.6 °C 1010.7 hPa Calm     26% 0 mm 0.0 W/m2
03:24 19.4 °C -0.6 °C 1010.7 hPa Calm     26% 0 mm 0.0 W/m2
03:29 19.4 °C -0.6 °C 1010.7 hPa Calm     26% 0 mm 0.0 W/m2
03:34 19.4 °C -0.6 °C 1010.7 hPa Calm     26% 0 mm 0.0 W/m2
03:39 19.4 °C -0.6 °C 1010.7 hPa Calm     26% 0 mm 0.0 W/m2
03:45 19.7 °C -0.3 °C 1010.7 hPa Calm     26% 0 mm 0.0 W/m2
03:50 19.9 °C -0.7 °C 1010.7 hPa Calm     25% 0 mm 0.0 W/m2
03:56 20 °C -0.6 °C 1010.7 hPa Calm     25% 0 mm 0.0 W/m2
04:01 19.9 °C -0.7 °C 1010.7 hPa Calm     25% 0 mm 0.0 W/m2
04:06 19.7 °C -0.9 °C 1010.7 hPa Calm     25% 0 mm 0.0 W/m2
04:12 19.5 °C -1.1 °C 1010.7 hPa Calm     25% 0 mm 0.0 W/m2
04:17 19.2 °C -1.3 °C 1010.7 hPa Calm     25% 0 mm 0.0 W/m2
04:22 18.8 °C -1.1 °C 1010.4 hPa Calm     26% 0 mm 0.0 W/m2
04:32 18.3 °C -1 °C 1010.4 hPa Calm     27% 0 mm 0.0 W/m2
04:38 18.3 °C -1 °C 1010.7 hPa Calm     27% 0 mm 0.0 W/m2
04:43 18.2 °C -1.1 °C 1010.7 hPa Calm     27% 0 mm 0.0 W/m2
04:48 18.1 °C -1.2 °C 1010.7 hPa Calm     27% 0 mm 0.0 W/m2
04:53 17.8 °C -1.5 °C 1010.7 hPa Calm     27% 0 mm 0.0 W/m2
04:58 17.3 °C -1.4 °C 1010.7 hPa Calm     28% 0 mm 0.0 W/m2
05:03 16.9 °C -1.3 °C 1010.7 hPa Calm     29% 0 mm 0.0 W/m2
05:08 16.9 °C -1.3 °C 1010.7 hPa Calm     29% 0 mm 0.0 W/m2
05:19 16.9 °C -1.3 °C 1010.7 hPa Calm     29% 0 mm 0.0 W/m2
05:24 17.1 °C -1.1 °C 1010.7 hPa Calm     29% 0 mm 0.0 W/m2
05:29 17.2 °C -1 °C 1011.1 hPa Calm     29% 0 mm 0.0 W/m2
05:40 17.1 °C -1.6 °C 1011.1 hPa Calm     28% 0 mm 0.0 W/m2
05:45 16.8 °C -1.3 °C 1011.1 hPa Calm     29% 0 mm 0.0 W/m2
05:50 16.5 °C -1.6 °C 1011.4 hPa Calm     29% 0 mm 0.0 W/m2
05:55 16.2 °C -1.4 °C 1011.4 hPa Calm     30% 0 mm 0.0 W/m2
06:08 16.2 °C -1.4 °C 1011.1 hPa Calm     30% 0 mm 0.0 W/m2
06:13 16.3 °C -1.3 °C 1011.1 hPa Calm     30% 0 mm 0.0 W/m2
06:18 16.5 °C -1.1 °C 1011.1 hPa Calm     30% 0 mm 0.0 W/m2
06:39 17.3 °C -1.4 °C 1011.1 hPa Calm     28% 0 mm 0.0 W/m2
06:49 17.6 °C -1.1 °C 1011.1 hPa Calm     28% 0 mm 9.0 W/m2
07:00 17.4 °C -1.3 °C 1011.1 hPa Calm     28% 0 mm 21.0 W/m2
07:13 17.4 °C -1.3 °C 1010.7 hPa Calm     28% 0 mm 37.0 W/m2
07:27 18.3 °C -1 °C 1010.7 hPa Calm   9.7 km/h 27% 0 mm 69.0 W/m2
07:53 21.4 °C -1.2 °C 1010.7 hPa NNE 9.7 km/h 14.5 km/h 22% 0 mm 105.0 W/m2
08:07 21.6 °C -1 °C 1010.7 hPa NNE 6.4 km/h 11.3 km/h 22% 0 mm 193.0 W/m2
08:19 21.6 °C -1 °C 1011.1 hPa Calm     22% 0 mm 230.0 W/m2
08:34 21.7 °C -1.6 °C 1011.1 hPa NNE 7.9 km/h 9.7 km/h 21% 0 mm 299.0 W/m2
08:46 23 °C -0.5 °C 1011.1 hPa NNE 7.9 km/h 9.7 km/h 21% 0 mm 355.0 W/m2
08:58 24.1 °C -0.3 °C 1011.1 hPa NNE 1.4 km/h 12.9 km/h 20% 0 mm 380.0 W/m2
09:27 26.2 °C -0.8 °C 1010.7 hPa NNE 13 km/h 16.1 km/h 17% 0 mm 538.0 W/m2
09:37 26.2 °C -0.8 °C 1010.7 hPa North 6.4 km/h 17.7 km/h 17% 0 mm 178.0 W/m2
09:46 27 °C -1 °C 1010.7 hPa Calm   14.5 km/h 16% 0 mm 555.0 W/m2
09:51 26.9 °C -1 °C 1010.4 hPa Calm   14.5 km/h 16% 0 mm 155.0 W/m2
10:03 27.4 °C -0.6 °C 1010.4 hPa North 11.1 km/h 17.7 km/h 16% 0 mm 570.0 W/m2
10:12 28.3 °C -0.8 °C 1010.4 hPa North 7.9 km/h 17.7 km/h 15% 0 mm 670.0 W/m2
10:24 28.3 °C -0.8 °C 1010 hPa North 9.7 km/h 24.1 km/h 15% 0 mm 192.0 W/m2
10:35 28.9 °C -0.3 °C 1010 hPa North 13 km/h 20.9 km/h 15% 0 mm 633.0 W/m2
11:05 29.7 °C 0.3 °C 1009.7 hPa North 14.3 km/h 29 km/h 15% 0 mm 686.0 W/m2
11:20 29.9 °C 0.5 °C 1009.7 hPa North 20.9 km/h 24.1 km/h 15% 0 mm 715.0 W/m2
11:30 31.1 °C 0.5 °C 1009.7 hPa North 11.1 km/h 27.4 km/h 14% 0 mm 735.0 W/m2
11:39 31.2 °C 0.5 °C 1009 hPa NNW 17.7 km/h 29 km/h 14% 0 mm 754.0 W/m2
11:44 31.5 °C -0.3 °C 1009 hPa North 14.3 km/h 19.3 km/h 13% 0 mm 751.0 W/m2
11:50 31.7 °C -0.1 °C 1009 hPa North 9.7 km/h 22.5 km/h 13% 0 mm 786.0 W/m2
11:56 31.8 °C 1 °C 1009 hPa North 20.9 km/h 29 km/h 14% 0 mm 831.0 W/m2
12:09 32.3 °C 1.4 °C 1008.7 hPa NNW 22.7 km/h 22.7 km/h 14% 0 mm 809.0 W/m2
12:24 32.6 °C 0.6 °C 1008.4 hPa North 11.1 km/h 19.3 km/h 13% 0 mm 684.0 W/m2
12:33 33.1 °C 1 °C 1008 hPa NNW 22.7 km/h 27.4 km/h 13% 0 mm 782.0 W/m2
13:12 33.8 °C 1.5 °C 1007.7 hPa NNW 1.4 km/h 20.9 km/h 13% 0 mm 367.0 W/m2
13:49 33.7 °C 1.5 °C 1007 hPa Calm     13% 0 mm 315.0 W/m2
13:58 33.8 °C 0.4 °C 1006.7 hPa WSW 14.3 km/h 16.1 km/h 12% 0 mm 295.0 W/m2
14:06 33.6 °C 0.3 °C 1006.7 hPa SW 17.7 km/h 20.9 km/h 12% 0 mm 355.0 W/m2
14:25 33.3 °C 1.2 °C 1006.3 hPa South 16.3 km/h 22.5 km/h 13% 0 mm 724.0 W/m2
14:39 32.7 °C 0.7 °C 1006.3 hPa South 22.7 km/h 25.7 km/h 13% 0 mm 682.0 W/m2
14:49 32.8 °C 0.8 °C 1006.3 hPa SSW 27.4 km/h 29 km/h 13% 0 mm 677.0 W/m2
14:58 32.3 °C 0.4 °C 1006.3 hPa SSW 19.5 km/h 25.7 km/h 13% 0 mm 671.0 W/m2
15:08 32.2 °C 1.3 °C 1006 hPa SSW 27.4 km/h 29 km/h 14% 0 mm 462.0 W/m2
15:18 31.6 °C 0.9 °C 1006 hPa South 19.5 km/h 33.8 km/h 14% 0 mm 577.0 W/m2
16:15 28.6 °C 1.2 °C 1006 hPa SSW 28.8 km/h 40.2 km/h 17% 0 mm 107.0 W/m2
16:35 26.8 °C 1.2 °C 1006.3 hPa SSW 30.6 km/h 37 km/h 19% 0 mm 60.0 W/m2
16:49 25.6 °C 1.6 °C 1006.7 hPa SSW 30.6 km/h 33.8 km/h 21% 0 mm 83.0 W/m2
17:08 25.2 °C 1.3 °C 1007 hPa SSW 19.5 km/h 32.2 km/h 21% 0 mm 97.0 W/m2
17:39 24.9 °C 0.4 °C 1007.3 hPa SSW 28.8 km/h 30.6 km/h 20% 0 mm 118.0 W/m2
17:59 24.8 °C -1.1 °C 1007.3 hPa SSW 19.5 km/h 30.6 km/h 18% 0 mm 100.0 W/m2
18:42 23.7 °C -1.3 °C 1007.7 hPa SSW 20.9 km/h 22.5 km/h 19% 0 mm 7.0 W/m2
19:41 21.6 °C -1 °C 1008.7 hPa SSW 16.3 km/h 22.5 km/h 22% 0 mm 0.0 W/m2
19:51 21.4 °C -0.6 °C 1009 hPa SSW 16.3 km/h 22.5 km/h 23% 0 mm 0.0 W/m2
20:02 21.1 °C -0.3 °C 1009 hPa SSW 16.3 km/h 19.3 km/h 24% 0 mm 0.0 W/m2
20:27 20.6 °C -0.1 °C 1009.4 hPa SSW 16.3 km/h 20.9 km/h 25% 0 mm 0.0 W/m2
20:52 20 °C 1.4 °C 1009.7 hPa SSW 19.5 km/h 24.1 km/h 29% 0 mm 0.0 W/m2
21:20 19.2 °C 3 °C 1010 hPa SSW 13 km/h 17.7 km/h 34% 0 mm 0.0 W/m2
21:27 19.1 °C 3.3 °C 1010 hPa SSW 16.3 km/h 22.5 km/h 35% 0 mm 0.0 W/m2
21:37 18.9 °C 3.1 °C 1010.4 hPa SSW 16.3 km/h 19.3 km/h 35% 0 mm 0.0 W/m2
21:43 18.8 °C 3.4 °C 1010.4 hPa SSW 14.3 km/h 17.7 km/h 36% 0 mm 0.0 W/m2
21:49 18.7 °C 3.3 °C 1010.4 hPa SSW 17.7 km/h 17.7 km/h 36% 0 mm 0.0 W/m2
21:57 18.3 °C 3.7 °C 1010.4 hPa SSW 14.3 km/h 17.7 km/h 38% 0 mm 0.0 W/m2
22:07 18.1 °C 3.9 °C 1010.4 hPa SSW 13 km/h 17.7 km/h 39% 0 mm 0.0 W/m2
22:17 17.9 °C 4.1 °C 1010.4 hPa SSW 11.1 km/h 17.7 km/h 40% 0 mm 0.0 W/m2
22:22 17.9 °C 4.5 °C 1010.4 hPa SSW 13 km/h 19.3 km/h 41% 0 mm 0.0 W/m2
22:27 17.8 °C 4.4 °C 1010.4 hPa SSW 16.3 km/h 20.9 km/h 41% 0 mm 0.0 W/m2
22:32 17.8 °C 4.4 °C 1010.7 hPa SSW 16.3 km/h 22.5 km/h 41% 0 mm 0.0 W/m2
22:37 17.7 °C 4.3 °C 1010.7 hPa SSW 11.1 km/h 17.7 km/h 41% 0 mm 0.0 W/m2
22:42 17.6 °C 4.5 °C 1010.7 hPa SSW 14.3 km/h 17.7 km/h 42% 0 mm 0.0 W/m2
22:47 17.5 °C 4.4 °C 1010.7 hPa SSW 13 km/h 16.1 km/h 42% 0 mm 0.0 W/m2
22:52 17.4 °C 4.4 °C 1010.4 hPa SSW 6.4 km/h 11.3 km/h 42% 0 mm 0.0 W/m2
22:57 17.3 °C 4.6 °C 1010 hPa SSW 6.4 km/h 9.7 km/h 43% 0 mm 0.0 W/m2
23:03 17.3 °C 4.6 °C 1010.4 hPa SSW 13 km/h 14.5 km/h 43% 0 mm 0.0 W/m2
23:08 17.2 °C 4.5 °C 1010.4 hPa SSW 7.9 km/h 9.7 km/h 43% 0 mm 0.0 W/m2
23:13 17.2 °C 4.5 °C 1010.4 hPa SSW 6.4 km/h 9.7 km/h 43% 0 mm 0.0 W/m2
23:23 17.1 °C 4.4 °C 1010.4 hPa SSW 6.4 km/h 6.4 km/h 43% 0 mm 0.0 W/m2
23:28 17 °C 4.3 °C 1010.4 hPa SSW 6.4 km/h 8 km/h 43% 0 mm 0.0 W/m2
23:33 16.9 °C 4.2 °C 1010.4 hPa SSW 7.9 km/h 11.3 km/h 43% 0 mm 0.0 W/m2
23:38 16.8 °C 4.1 °C 1010 hPa SSW 11.1 km/h 14.5 km/h 43% 0 mm 0.0 W/m2
23:43 16.8 °C 4.1 °C 1010 hPa SSW 11.1 km/h 14.5 km/h 43% 0 mm 0.0 W/m2
23:48 16.8 °C 3.8 °C 1010 hPa SSW 16.3 km/h 17.7 km/h 42% 0 mm 0.0 W/m2
23:58 16.9 °C 3.6 °C 1010 hPa SSW 14.3 km/h 17.7 km/h 41% 0 mm 0.0 W/m2
Canyon Roadhouse, Fishriver Canyon, Namibia
Compliments of Weather Underground - 2.25 mb